Simultaneous Nadir Overpasses (SNOs) Predictions

Prediction of SNOs between METOP-A and TERRA Satellite Orbit:

Table of predicted SNOs for the next 14.0 days since TLE Epoch: 1/19/2013
Index Date (METOP-A) Time (METOP-A) Lat,Lon (METOP-A) SZA (METOP-A ) Date (TERRA) Time (TERRA) Lat,Lon (TERRA) SZA (TERRA ) Distance(km) Time Diff (sec)
1 01/20/2013 09:32:38 -81.35, -95.50 76.23 01/20/2013 09:33:49 -81.34, -95.60 76.22 1.97 71
2 01/20/2013 10:23:18 81.35, 72.25 103.81 01/20/2013 10:23:15 81.34, 72.16 103.80 1.81 3
3 01/23/2013 05:06:58 -81.35, -28.78 76.85 01/23/2013 05:08:03 -81.35, -28.93 76.84 2.51 65
4 01/23/2013 05:57:38 81.35, 138.93 103.19 01/23/2013 05:57:29 81.35, 138.80 103.17 2.05 9
5 01/26/2013 00:41:19 -81.35, 37.51 77.57 01/26/2013 00:42:17 -81.35, 37.60 77.53 1.61 58
6 01/26/2013 01:31:59 81.35,-154.84 102.47 01/26/2013 01:31:43 81.36,-154.69 102.48 2.46 16
7 01/28/2013 20:15:38 -81.35, 104.15 78.28 01/28/2013 20:16:30 -81.35, 103.97 78.28 2.86 52
8 01/28/2013 21:06:18 81.35, -88.24 101.74 01/28/2013 21:05:56 81.35, -88.34 101.72 1.55 22
9 01/31/2013 15:49:59 -81.35, 170.35 79.09 01/31/2013 15:50:44 -81.34, 170.21 79.09 2.63 45




NCC Satellite Simultaneous Nadir Overpasses (SNOs) Prediction Service
